World > North America > United States > Virginia
Hourly Weather in Bristol, VirginiaBristol, Virginia Hourly Weather

Bristol, VA Hourly Weather

Hourly Weather Bristol, VirginiaHourly Weather in Bristol, VA
Lat: 36.60N, Lon: 82.19W  ICAO: KVJI
Web Search

Ads allow us to feed your daily addiction for the world's greatest weather information. We're determined to offer quality sponsors, in the least annoying way possible.

Feedback

Bristol Hourly Weather

36 Hour Weather Scroll   °F Click to change Bristol hourly weather to Imperial units.Click to change Bristol hourly weather to Metric units. °C
Currently, Clear, temperature is 29°F-2°C, dew point 18.0°F-8°C, humidity 62%. Wind direction is N at 0 mph0 km/h with visibility of 10 mile(s) mi16 km. Barometric pressure is 30.1 in1019 mb.

Nov 29
9:00 PM

Nov 29
10:00 PM

Nov 29
11:00 PM

Nov 30
MIDNIGHT

Nov 30
1:00 AM

Nov 30
2:00 AM

Nov 30
3:00 AM

Nov 30
4:00 AM

Nov 30
5:00 AM

Nov 30
6:00 AM

Nov 30
7:00 AM

Nov 30
8:00 AM

Nov 30
9:00 AM

Nov 30
10:00 AM

Nov 30
11:00 AM

Nov 30
NOON

Nov 30
1:00 PM

Nov 30
2:00 PM

Nov 30
3:00 PM

Nov 30
4:00 PM

Nov 30
5:00 PM

Nov 30
6:00 PM

Nov 30
7:00 PM

Nov 30
8:00 PM

Nov 30
9:00 PM

Nov 30
10:00 PM

Nov 30
11:00 PM

Dec 01
MIDNIGHT

Dec 01
1:00 AM

Dec 01
2:00 AM

Dec 01
3:00 AM

Dec 01
7:00 AM

Dec 01
8:00 AM

Dec 01
9:00 AM

Dec 01
1:00 PM

Dec 01
2:00 PM
Clear Clear Clear Partly Cloudy Partly Cloudy Partly Cloudy Cloudy Cloudy Cloudy Cloudy Cloudy Cloudy Cloudy Cloudy Cloudy Cloudy Cloudy Cloudy Cloudy Cloudy Cloudy Cloudy Cloudy Cloudy Cloudy Cloudy Cloudy Cloudy Cloudy Cloudy Cloudy Cloudy Cloudy Mostly Clear Mostly Clear Mostly Clear
Clear Clear Clear Partly Cloudy Partly Cloudy Partly Cloudy Cloudy Cloudy Cloudy Cloudy Cloudy Cloudy Cloudy Cloudy Cloudy Cloudy Cloudy Cloudy Cloudy Cloudy Cloudy Cloudy Cloudy Cloudy Cloudy Cloudy Cloudy Cloudy Cloudy Cloudy Cloudy Cloudy Cloudy Mostly Clear Mostly Clear Mostly Clear
45°F7°C 44°F7°C 44°F7°C 43°F6°C 43°F6°C 43°F6°C 42°F6°C 42°F6°C 42°F6°C 42°F6°C 42°F6°C 44°F7°C 46°F8°C 48°F9°C 50°F10°C 53°F12°C 55°F13°C 55°F13°C 56°F13°C 56°F13°C 55°F13°C 53°F12°C 52°F11°C 51°F11°C 50°F10°C 49°F9°C 48°F9°C 48°F9°C 47°F8°C 47°F8°C 46°F8°C 46°F8°C 51°F11°C 57°F14°C 62°F17°C 41°F5°C
- - - - - - - - - - - - - - - - - - - - - - - Rain Rain Rain Rain Rain Rain - - - - - - -
0% 0% 0% 0% 0% 0% 0% 0% 0% 0% 0% 6% 6% 6% 6% 6% 6% 16% 16% 16% 16% 16% 16% 44% 44% 44% 44% 44% 44% 2% 2% 2% 0% 0% 0% %
38°F3°C 37°F3°C 37°F3°C 36°F2°C 36°F2°C 36°F2°C 37°F3°C 37°F3°C 37°F3°C 37°F3°C 37°F3°C 38°F3°C 38°F3°C 39°F4°C 39°F4°C 39°F4°C 39°F4°C 40°F4°C 40°F4°C 41°F5°C 42°F6°C 42°F6°C 43°F6°C 43°F6°C 42°F6°C 42°F6°C 42°F6°C 41°F5°C 41°F5°C 41°F5°C 42°F6°C 42°F6°C 42°F6°C 43°F6°C 43°F6°C 29°F-2°C
76% 76% 76% 76% 76% 76% 82% 82% 82% 82% 82% 79% 73% 71% 66% 59% 55% 57% 55% 57% 61% 66% 71% 74% 74% 77% 80% 77% 80% 80% 86% 86% 71% 59% 50% 62%
NW NNW SSW SSE ENE E E E E E E E E E SSE S SSW SSW SSW SSW SSW SSW W W W W W W W W WNW WNW WNW W W S
2 mph 2 mph 2 mph 3 mph 3 mph 3 mph 3 mph 3 mph 3 mph 3 mph 3 mph 3 mph 4 mph 4 mph 4 mph 6 mph 6 mph 6 mph 6 mph 6 mph 6 mph 5 mph 5 mph 5 mph 7 mph 7 mph 7 mph 3 mph 3 mph 3 mph 3 mph 3 mph 3 mph 15 mph 15 mph 15 mph
10 mi16 km 10 mi16 km 10 mi16 km 10 mi16 km 10 mi16 km 10 mi16 km 10 mi16 km 10 mi16 km 10 mi16 km 10 mi16 km 10 mi16 km 10 mi16 km 10 mi16 km 10 mi16 km 10 mi16 km 10 mi16 km 10 mi16 km 10 mi16 km 10 mi16 km 10 mi16 km 10 mi16 km 10 mi16 km 10 mi16 km 10 mi16 km 10 mi16 km 10 mi16 km 10 mi16 km 10 mi16 km 10 mi16 km 10 mi16 km 10 mi16 km 10 mi16 km 10 mi16 km 10 mi16 km 10 mi16 km 5 mi8 km
Hour (EST)
Weather
Clouds
Temperature
Precip. Type
POP
Dewpoint
Humidity
Wind Direction
Wind Speed
Visibility
POP = Probability of Precipitation. ** Indicates missing data/values from model statistics.

24 Hour Forecast

Tonight - Mostly clear. Lows in the upper 20s. Southwest winds 10 mph or less.
Tuesday - Sunny. Highs in the upper 40s to lower 50s. Southwest winds 5 to 15 mph.

48 Hour Forecast API Feed


Mon, Nov 29
9:00 pm

Mon, Nov 29
10:00 pm

Mon, Nov 29
11:00 pm

Tue, Nov 30
Midnight

Tue, Nov 30
1:00 am

Tue, Nov 30
2:00 am

Tue, Nov 30
3:00 am

Tue, Nov 30
4:00 am

Tue, Nov 30
5:00 am

Tue, Nov 30
6:00 am

Tue, Nov 30
7:00 am

Tue, Nov 30
8:00 am

Tue, Nov 30
9:00 am

Tue, Nov 30
10:00 am

Tue, Nov 30
11:00 am

Tue, Nov 30
Noon

Tue, Nov 30
1:00 pm

Tue, Nov 30
2:00 pm

Tue, Nov 30
3:00 pm

Tue, Nov 30
4:00 pm

Tue, Nov 30
5:00 pm

Tue, Nov 30
6:00 pm

Tue, Nov 30
7:00 pm

Tue, Nov 30
8:00 pm

Tue, Nov 30
9:00 pm

Tue, Nov 30
10:00 pm

Tue, Nov 30
11:00 pm

Wed, Dec 1
Midnight

Wed, Dec 1
1:00 am

Wed, Dec 1
2:00 am

Wed, Dec 1
3:00 am

Wed, Dec 1
4:00 am

Wed, Dec 1
5:00 am

Wed, Dec 1
6:00 am

Wed, Dec 1
7:00 am

Wed, Dec 1
8:00 am

Wed, Dec 1
9:00 am

Wed, Dec 1
10:00 am

Wed, Dec 1
11:00 am

Wed, Dec 1
Noon

Wed, Dec 1
1:00 pm

Wed, Dec 1
2:00 pm

Wed, Dec 1
3:00 pm

Wed, Dec 1
4:00 pm

Wed, Dec 1
5:00 pm

Wed, Dec 1
6:00 pm

Wed, Dec 1
7:00 pm

Wed, Dec 1
8:00 pm
ClearClearClearClearPartly CloudyPartly CloudyPartly CloudyPartly CloudyClearClearClearSunnySunnySunnySunnySunnySunnySunnySunnySunnySunnyClearClearClearClearClearClearClearClearPartly CloudyClearPartly CloudyPartly CloudyClearPartly CloudySunnyPartly CloudyPartly CloudyPartly CloudySunnySunnyOvercastOvercastCloudyPartly CloudyOvercastOvercastPartly Cloudy
Clear Clear Clear Clear Partly cloudy Partly cloudy Partly cloudy Partly cloudy Clear Clear Clear Sunny Sunny Sunny Sunny Sunny Sunny Sunny Sunny Sunny Sunny Clear Clear Clear Clear Clear Clear Clear Clear Partly cloudy Clear Partly cloudy Partly cloudy Clear Partly cloudy Sunny Partly cloudy Partly cloudy Partly cloudy Sunny Sunny Overcast Overcast Cloudy Partly cloudy Overcast Overcast Partly cloudy
28°F
-2°C
28°F
-2°C
27°F
-3°C
27°F
-3°C
27°F
-3°C
28°F
-3°C
29°F
-2°C
28°F
-2°C
28°F
-3°C
27°F
-3°C
27°F
-3°C
27°F
-3°C
29°F
-2°C
36°F
2°C
42°F
6°C
46°F
8°C
49°F
9°C
51°F
11°C
53°F
12°C
54°F
12°C
52°F
11°C
44°F
7°C
41°F
5°C
37°F
3°C
37°F
3°C
36°F
2°C
35°F
2°C
35°F
1°C
34°F
1°C
34°F
1°C
34°F
1°C
34°F
1°C
35°F
1°C
35°F
1°C
35°F
1°C
35°F
2°C
38°F
3°C
42°F
6°C
47°F
8°C
50°F
10°C
53°F
12°C
54°F
12°C
54°F
12°C
54°F
12°C
53°F
12°C
50°F
10°C
49°F
9°C
48°F
9°C
19°F
-8°C
18°F
-8°C
18°F
-8°C
18°F
-8°C
17°F
-8°C
17°F
-8°C
17°F
-8°C
17°F
-8°C
16°F
-9°C
15°F
-10°C
14°F
-10°C
13°F
-10°C
14°F
-10°C
16°F
-9°C
20°F
-6°C
25°F
-4°C
29°F
-2°C
32°F
0°C
35°F
2°C
37°F
3°C
38°F
3°C
35°F
2°C
36°F
2°C
33°F
1°C
33°F
1°C
33°F
1°C
33°F
0°C
32°F
0°C
32°F
-0°C
32°F
0°C
32°F
0°C
32°F
0°C
32°F
0°C
32°F
0°C
32°F
0°C
33°F
1°C
35°F
2°C
37°F
3°C
38°F
3°C
40°F
4°C
40°F
5°C
40°F
5°C
41°F
5°C
42°F
6°C
42°F
6°C
42°F
6°C
42°F
6°C
43°F
6°C
30.18 in
1022 mb
30.21 in
1023 mb
30.18 in
1022 mb
30.18 in
1022 mb
30.18 in
1022 mb
30.18 in
1022 mb
30.15 in
1021 mb
30.18 in
1022 mb
30.15 in
1021 mb
30.15 in
1021 mb
30.15 in
1021 mb
30.15 in
1021 mb
30.18 in
1022 mb
30.18 in
1022 mb
30.15 in
1021 mb
30.15 in
1021 mb
30.12 in
1020 mb
30.09 in
1019 mb
30.09 in
1019 mb
30.09 in
1019 mb
30.09 in
1019 mb
30.12 in
1020 mb
30.15 in
1021 mb
30.18 in
1022 mb
30.18 in
1022 mb
30.21 in
1023 mb
30.21 in
1023 mb
30.21 in
1023 mb
30.21 in
1023 mb
30.21 in
1023 mb
30.21 in
1023 mb
30.21 in
1023 mb
30.21 in
1023 mb
30.18 in
1022 mb
30.21 in
1023 mb
30.21 in
1023 mb
30.21 in
1023 mb
30.21 in
1023 mb
30.18 in
1022 mb
30.12 in
1020 mb
30.09 in
1019 mb
30.06 in
1018 mb
30.03 in
1017 mb
30 in
1016 mb
30.03 in
1017 mb
30.03 in
1017 mb
30.06 in
1018 mb
30.09 in
1019 mb
67%67%68%67%65%64%59%61%61%60%58%56%53%44%42%43%46%48%50%53%60%72%81%86%87%89%91%91%91%92%91%92%92%92%92%92%88%80%71%66%62%60%60%64%67%75%78%81%
SSSSSSESSSSWSSWSSWSSWSSWSWSWWSWWSWWSWWSWWSWWSWWSWSWSSWSSWSSWSSSSEESESESEESESEESESEESESSSWSSWSWWSWWSWWSWWSWWSWWSWWSWWSW
3 mph
5 km/h
3 mph
5 km/h
3 mph
5 km/h
2 mph
3 km/h
2 mph
3 km/h
2 mph
4 km/h
2 mph
3 km/h
3 mph
5 km/h
4 mph
6 km/h
4 mph
6 km/h
4 mph
6 km/h
4 mph
6 km/h
4 mph
6 km/h
7 mph
12 km/h
11 mph
18 km/h
12 mph
19 km/h
12 mph
19 km/h
12 mph
19 km/h
11 mph
18 km/h
10 mph
15 km/h
8 mph
13 km/h
7 mph
11 km/h
6 mph
9 km/h
4 mph
6 km/h
3 mph
5 km/h
3 mph
5 km/h
3 mph
5 km/h
2 mph
4 km/h
2 mph
3 km/h
2 mph
4 km/h
2 mph
4 km/h
2 mph
4 km/h
2 mph
4 km/h
2 mph
3 km/h
2 mph
3 km/h
1 mph
2 km/h
2 mph
3 km/h
2 mph
3 km/h
4 mph
6 km/h
5 mph
8 km/h
7 mph
11 km/h
9 mph
14 km/h
9 mph
15 km/h
8 mph
13 km/h
8 mph
13 km/h
8 mph
13 km/h
7 mph
12 km/h
7 mph
12 km/h
0%0%0%0%0%0%0%0%0%0%0%0%0%0%0%0%0%0%0%0%0%0%0%0%0%0%0%0%0%0%0%0%0%0%0%0%0%0%0%0%0%0%0%0%0%0%0%0%
6 mi
10 km
6 mi
10 km
6 mi
10 km
6 mi
10 km
6 mi
10 km
6 mi
10 km
6 mi
10 km
6 mi
10 km
6 mi
10 km
6 mi
10 km
6 mi
10 km
6 mi
10 km
6 mi
10 km
6 mi
10 km
6 mi
10 km
6 mi
10 km
6 mi
10 km
6 mi
10 km
6 mi
10 km
6 mi
10 km
6 mi
10 km
6 mi
10 km
6 mi
10 km
6 mi
10 km
6 mi
10 km
6 mi
10 km
6 mi
10 km
6 mi
10 km
6 mi
10 km
6 mi
10 km
6 mi
10 km
6 mi
10 km
6 mi
10 km
6 mi
10 km
6 mi
10 km
6 mi
10 km
6 mi
10 km
6 mi
10 km
6 mi
10 km
6 mi
10 km
6 mi
10 km
6 mi
10 km
6 mi
10 km
6 mi
10 km
6 mi
10 km
6 mi
10 km
6 mi
10 km
6 mi
10 km

Day/Time
Weather
Condition
Temperature
Dew Point
Pressure
Humidity
Wind Direction
Wind Speed
Prob Precip %
Visibility
Prob Precip % = Probability of Precipitation.